Weather History for Crossville, TN

Change the Weather History Date:

Tuesday, May 13, 2014

  Actual Average Record
Temperature  
Mean Temperature 71 °F 63 °F  
Max Temperature 81 °F 73 °F 91 °F (1962)
Min Temperature 63 °F 52 °F 33 °F (2013)
Degree Days  
Heating Degree Days 0    
Month to date heating degree days  
Since 1 July heating degree days  
Cooling Degree Days 6    
Month to date cooling degree days  
Year to date cooling degree days  
Growing Degree Days 21 (Base 50)    
Moisture  
Dew Point 61 °F    
Average Humidity 72    
Maximum Humidity 90    
Minimum Humidity 47    
Precipitation  
Precipitation 0.00 in 0.19 in 1.39 in (1959)
Month to date precipitation 2.30  
Year to date precipitation 21.32  
Sea Level Pressure  
Sea Level Pressure 30.11 in    
Wind  
Wind Speed 3 mph (SW)    
Max Wind Speed 10 mph    
Max Gust Speed 18 mph    
Visibility 10 miles    
Events Rain , Thunderstorm    
T = Trace of Precipitation, MM = Missing Value Source: NWS Daily Summary

Daily Weather History Graph

Daily Weather History Graph

Search for Another Location

Airport:

Trip Planner

Search our weather history database for the weather conditions in past years. The results will help you decide how hot, cold, wet, or windy it might be!

Date:

Astronomy

May. 13, 2014 Rise Set
Actual Time 5:36 AM CDT 7:37 PM CDT
Civil Twilight 5:07 AM CDT 8:05 PM CDT
Nautical Twilight 4:33 AM CDT 8:40 PM CDT
Astronomical Twilight 3:56 AM CDT 9:17 PM CDT
Moon 6:40 PM CDT (5/13) 4:49 AM CDT (5/13)
Length of Visible Light 14h 58m
Length of Day
14h 01m
Waxing Gibbous, 99% of the Moon is Illuminated
May 13
Waxing Gibbous
May 14
Full
May 21
Last Quarter
May 28
New
Jun 5
First Quarter

Hourly Weather History & Observations

Time (CDT) Temp. Dew Point Humidity Pressure Visibility Wind Dir Wind Speed Gust Speed Precip Events Conditions
12:53 AM 64.9 °F 60.1 °F 84% 30.10 in 10.0 mi SSW 3.5 mph - N/A   Clear
1:53 AM 68.0 °F 59.0 °F 73% 30.09 in 10.0 mi WSW 4.6 mph - N/A   Clear
2:53 AM 68.0 °F 59.0 °F 73% 30.08 in 10.0 mi SW 4.6 mph - N/A   Clear
3:53 AM 64.9 °F 60.1 °F 84% 30.09 in 10.0 mi Calm Calm - N/A   Clear
4:53 AM 63.0 °F 59.0 °F 87% 30.09 in 10.0 mi Calm Calm - N/A   Clear
5:53 AM 64.0 °F 60.1 °F 87% 30.10 in 10.0 mi Calm Calm - N/A   Clear
6:50 AM 68.0 °F 60.8 °F 78% 30.17 in 10.0 mi South 3.5 mph - N/A   Partly Cloudy
6:53 AM 68.0 °F 62.1 °F 81% 30.11 in 10.0 mi SSE 3.5 mph - N/A   Clear
8:53 AM 75.0 °F 63.0 °F 66% 30.14 in 10.0 mi SSW 10.4 mph - N/A   Clear
11:53 AM 79.0 °F 57.0 °F 47% 30.13 in 10.0 mi SSW 6.9 mph 18.4 mph N/A   Scattered Clouds
12:53 PM 75.9 °F 61.0 °F 60% 30.12 in 10.0 mi Variable 6.9 mph - N/A   Scattered Clouds
1:10 PM 73.0 °F 61.0 °F 66% 30.17 in 9.0 mi South 6.9 mph - 0.00 in Rain , Thunderstorm Light Thunderstorms and Rain
1:25 PM 73.0 °F 61.0 °F 66% 30.17 in 10.0 mi Variable 4.6 mph - 0.00 in Thunderstorm Mostly Cloudy
1:53 PM 73.0 °F 60.1 °F 64% 30.12 in 10.0 mi WSW 6.9 mph - 0.00 in Rain , Thunderstorm Light Rain
2:10 PM 73.0 °F 62.1 °F 68% 30.16 in 10.0 mi Calm Calm - 0.00 in   Mostly Cloudy
2:37 PM 77.0 °F 59.0 °F 54% 30.15 in 10.0 mi Variable 4.6 mph - 0.00 in Thunderstorm Partly Cloudy
2:53 PM 77.0 °F 61.0 °F 58% 30.09 in 10.0 mi North - - 0.00 in   Scattered Clouds
3:53 PM 79.0 °F 63.0 °F 58% 30.07 in 10.0 mi Calm Calm - N/A   Clear
4:16 PM 79.0 °F 61.0 °F 54% 30.12 in 10.0 mi Variable 4.6 mph - N/A Thunderstorm Thunderstorm
5:13 PM 73.9 °F 59.0 °F 59% 30.12 in 10.0 mi North 3.5 mph - N/A   Scattered Clouds
5:24 PM 75.0 °F 57.9 °F 55% 30.12 in 10.0 mi Calm Calm - N/A Thunderstorm Partly Cloudy
5:39 PM 75.0 °F 61.0 °F 62% 30.11 in 10.0 mi Calm Calm - N/A   Clear
5:53 PM 75.0 °F 59.0 °F 57% 30.06 in 10.0 mi Calm Calm - N/A   Clear
6:11 PM 72.0 °F 61.0 °F 68% 30.12 in 10.0 mi Calm Calm - N/A Thunderstorm Clear
6:22 PM 73.0 °F 62.1 °F 68% 30.12 in 10.0 mi Calm Calm - N/A Thunderstorm Thunderstorm
6:37 PM 70.0 °F 61.0 °F 73% 30.12 in 10.0 mi NNW 5.8 mph - N/A Thunderstorm Scattered Clouds
6:53 PM 69.1 °F 61.0 °F 75% 30.07 in 10.0 mi West 4.6 mph - N/A Thunderstorm Partly Cloudy
7:24 PM 68.0 °F 61.0 °F 78% 30.14 in 10.0 mi Calm Calm - N/A   Clear
7:53 PM 66.9 °F 62.1 °F 84% 30.09 in 10.0 mi Calm Calm - N/A   Clear
8:53 PM 64.9 °F 62.1 °F 90% 30.09 in 10.0 mi Calm Calm - N/A   Clear
9:53 PM 64.9 °F 62.1 °F 90% 30.11 in 9.0 mi Calm Calm - N/A   Clear
10:53 PM 64.9 °F 62.1 °F 90% 30.10 in 10.0 mi Calm Calm - N/A   Clear
11:37 PM 64.9 °F 62.1 °F 90% 30.15 in 9.0 mi Calm Calm - N/A Thunderstorm Thunderstorm
11:53 PM 64.9 °F 62.1 °F 90% 30.09 in 10.0 mi Calm Calm - N/A Thunderstorm Partly Cloudy